Location: Unspecified
(29.7860°N, 0.0000°E)
Time: 02:25:35
(UTC+00:00)

COBE sensor cover - Visible Passes

Search period start: 04 April 2026 00:00
Search period end: 14 April 2026 00:00
Orbit: 814 x 832 km, 98.7° (Epoch: 28 March)

Date Brightness Start Highest point End Pass type
(mag) Time Alt. Az. Time Alt. Az. Time Alt. Az.
5 Apr ? 18:59:30 10° SW 19:02:47 17° W 19:06:06 10° NW visible
8 Apr ? 05:04:25 10° ENE 05:06:02 11° E 05:07:39 10° ESE visible
10 Apr ? 18:59:51 10° SW 19:03:06 16° W 19:06:24 10° WNW visible
11 Apr ? 18:38:36 10° SSW 18:43:01 27° W 18:47:29 10° NW visible
13 Apr ? 05:04:40 10° ENE 05:06:21 11° E 05:08:02 10° ESE visible
